[[{"header":{"parameterUnit":"m.s-1","parameterCategory":1,"la1":30.2991,"la2":30.254,"lo1":-89.0895,"lo2":-89.0444,"dy":0.0017,"dx":0.0017,"nx":28,"ny":28,"refTime":"2023-10-30T21:00:00:Z","depth":0,"parameterNumber":2,"parameterNumberName":"U-component_of_WINDS"},"data":[0,0,0,0,0,0,0,0,0,0,0,0,0,0,0,0,0,0,0,0,0,0,0,0,0,0,0,0,0,0,0,0,0,0,0,0,0,0,0,0,0,0,0,0,0,0,0,0,0,0,0,0,0,0,0,0,0,0,0.6129,0.6129,0,0.606,0.6059,0.6058,0.6039,0.6039,0.604,0.604,0.5966,0.5964,0.5962,0,0,0,0,0,0,0,0,0,0,0,0,0,0.6243,0.6241,0.6129,0.6128,0.6128,0.606,0.6059,0.6058,0.6039,0.6039,0.604,0.604,0.5967,0.5964,0.5962,0,0,0,0,0,0,0,0,0,0,0,0,0,0.6186,0.6241,0.6129,0.611,0.6107,0.606,0.6059,0.6058,0.6039,0.6039,0.604,0.604,0.5968,0.5965,0.5961,0.5928,0,0,0.5951,0.5949,0,0,0,0,0,0,0,0,0.6189,0.6182,0.6114,0.6111,0.6108,0.6059,0.6072,0.6014,0.6038,0.6065,0.604,0.6041,0.5997,0.5991,0.5976,0.5925,0.5921,0.595,0.5948,0.5947,0.5946,0,0,0,0,0,0,0,0.6193,0.6185,0.6102,0.6113,0.6109,0.6104,0.6096,0.6061,0.6028,0.6062,0.6061,0.6053,0.5995,0.598,0.5974,0.592,0.595,0.5947,0.5945,0.5944,0.5839,0.5838,0,0,0,0,0,0,0.6201,0.6188,0.6104,0.61,0.6151,0.6101,0.6093,0.6074,0.6028,0.6022,0.6053,0.6052,0.5985,0.5979,0.5972,0.593,0.5947,0.5944,0.5942,0.5839,0.5838,0.5838,0,0,0,0,0,0,0.6203,0.6194,0.6107,0.6143,0.6132,0.6099,0.6078,0.6072,0.6057,0.6021,0.6015,0.6043,0.5986,0.5977,0.5939,0.5927,0.5942,0.5939,0.584,0.5839,0.5838,0.5846,0,0,0,0,0,0,0.6207,0.6195,0.6182,0.6143,0.613,0.6076,0.6077,0.6071,0.6051,0.605,0.601,0.6004,0.5985,0.5945,0.5936,0.5923,0.5936,0.5841,0.584,0.5838,0.5847,0.5845,0.5844,0,0,0,0,0,0.6211,0.6186,0.6181,0.6171,0.6114,0.6075,0.6068,0.6047,0.605,0.6037,0.6014,0.6006,0.593,0.5941,0.5931,0.5916,0.5842,0.584,0.5838,0.5847,0.5846,0.5844,0,0,0,0,0,0,0.6222,0.6181,0.6175,0.6137,0.611,0.6072,0.6054,0.6046,0.6017,0.6017,0.5992,0.5983,0.5948,0.5928,0.5941,0.5882,0.5886,0.5882,0.5896,0.5894,0.5893,0.5898,0.5933,0,0,0,0,0,0.6221,0.6194,0.6159,0.6128,0.6115,0.6088,0.607,0.6057,0.6027,0.6016,0.599,0.5961,0.5931,0.5912,0.5882,0.5844,0.5835,0.583,0.5828,0.5828,0.5824,0.5803,0.58,0.5832,0.5832,0.5833,0,0,0.6217,0.6191,0.6175,0.613,0.6108,0.608,0.6078,0.6048,0.6027,0.6011,0.5974,0.5955,0.5921,0.5884,0.5866,0.5866,0.5814,0.5826,0.5825,0.5822,0.5801,0.5798,0.5796,0.5831,0.5832,0.5832,0,0,0.6195,0.6173,0.6145,0.6123,0.609,0.6072,0.6065,0.6029,0.6016,0.5979,0.5966,0.5941,0.589,0.5866,0.5848,0.582,0.581,0.5811,0.5804,0.5783,0.5781,0.5778,0.5768,0.5764,0.5808,0.5808,0.5808,0,0.6193,0.6151,0.6132,0.6103,0.6084,0.607,0.6042,0.6021,0.598,0.5966,0.5968,0.5904,0.5881,0.5838,0.5831,0.5817,0.5808,0.5814,0.5783,0.578,0.5778,0.5767,0.5764,0.5808,0.5808,0.5808,0.5808,0,0.6151,0.6123,0.6105,0.6066,0.6045,0.6017,0.5993,0.5974,0.5963,0.5945,0.5908,0.5879,0.5844,0.5833,0.5822,0.5789,0.579,0.5788,0.5791,0.5775,0.5765,0.5761,0.5808,0.5808,0.5808,0.5808,0,0,0.6133,0.6085,0.6079,0.6062,0.6025,0.6002,0.5973,0.594,0.5924,0.5896,0.5871,0.5829,0.5827,0.5807,0.5793,0.5775,0.5754,0.5775,0.5774,0.5771,0.5716,0.5717,0.5713,0.5749,0.5748,0.5747,0.5719,0,0.6106,0.6055,0.6037,0.5995,0.5968,0.5955,0.593,0.5905,0.5888,0.5862,0.5843,0.5813,0.5813,0.58,0.5783,0.5761,0.5743,0.5763,0.5725,0.5724,0.5732,0.5708,0.5709,0.5683,0.5715,0.5714,0.5714,0,0.6066,0.604,0.5995,0.5962,0.595,0.5929,0.5897,0.5873,0.5844,0.5833,0.5811,0.5798,0.5768,0.5774,0.5732,0.5746,0.573,0.5717,0.5715,0.571,0.5717,0.5701,0.5674,0.567,0.5707,0.5708,0.5708,0,0.6057,0.6009,0.5977,0.5962,0.5924,0.5909,0.5892,0.5863,0.5845,0.5817,0.5805,0.5774,0.5757,0.5733,0.5713,0.5719,0.5672,0.5677,0.5661,0.5662,0.5651,0.5651,0.562,0.5642,0.5642,0.5642,0.5642,0,0.6028,0.6001,0.5972,0.5952,0.5921,0.5902,0.5872,0.5854,0.583,0.5806,0.5793,0.577,0.5745,0.572,0.5704,0.5671,0.5664,0.5653,0.5649,0.5654,0.5655,0.5642,0.5643,0.5641,0.5642,0.5642,0.5642,0,0.6011,0.5991,0.5954,0.5921,0.5912,0.5891,0.5863,0.5843,0.5826,0.5795,0.5787,0.576,0.5729,0.5708,0.5668,0.5657,0.5622,0.5618,0.5632,0.5629,0.5615,0.5617,0.5573,0.5566,0.5594,0.5594,0.5594,0,0.5993,0.5972,0.5937,0.5921,0.5904,0.5878,0.5859,0.5839,0.582,0.5787,0.5771,0.574,0.5713,0.5665,0.5641,0.5611,0.5606,0.5593,0.5601,0.5607,0.5605,0.5606,0.5604,0.5591,0.5591,0.5591,0.5591,0,0.5963,0.5955,0.5929,0.5899,0.5878,0.5854,0.5829,0.5816,0.5793,0.5772,0.5741,0.5721,0.5681,0.565,0.5618,0.56,0.5591,0.5589,0.5584,0.5587,0.5596,0.5591,0.5627,0.5589,0.559,0.559,0.559,0.559,0.5944,0.5926,0.5899,0.587,0.585,0.5828,0.5808,0.5789,0.5763,0.573,0.572,0.5688,0.5661,0.5617,0.5599,0.5573,0.5573,0.5566,0.5564,0.5562,0.5562,0.5601,0.5567,0.5567,0.5567,0.5567,0.5567,0,0.5913,0.5896,0.587,0.5837,0.5815,0.5811,0.5784,0.5765,0.5738,0.5713,0.5688,0.5653,0.5624,0.5599,0.5568,0.5552,0.5547,0.5545,0.5545,0.5541,0.5563,0.5571,0.5549,0.5549,0.5549,0.5549,0.5549,0.5549,0.5894,0.5862,0.5851,0.5809,0.5792,0.5761,0.5746,0.5725,0.5706,0.5668,0.5643,0.5628,0.5603,0.5571,0.5543,0.5537,0.5526,0.5524,0.5516,0.5537,0.5539,0.5541,0.5548,0.5522,0.5522,0.5496,0.5495,0.5495]},{"header":{"parameterUnit":"m.s-1","parameterCategory":1,"la1":30.2991,"la2":30.254,"lo1":-89.0895,"lo2":-89.0444,"dy":0.0017,"dx":0.0017,"nx":28,"ny":28,"refTime":"2023-10-30T21:00:00:Z","depth":0,"parameterNumber":3,"parameterNumberName":"V-component_of_WINDS"},"data":[0,0,0,0,0,0,0,0,0,0,0,0,0,0,0,0,0,0,0,0,0,0,0,0,0,0,0,0,0,0,0,0,0,0,0,0,0,0,0,0,0,0,0,0,0,0,0,0,0,0,0,0,0,0,0,0,0,0,-8.2054,-8.2055,0,-8.2191,-8.2193,-8.2194,-8.2136,-8.2133,-8.2129,-8.2126,-8.226,-8.2266,-8.2273,0,0,0,0,0,0,0,0,0,0,0,0,0,-8.1734,-8.1741,-8.2053,-8.2055,-8.2057,-8.2191,-8.2193,-8.2195,-8.2137,-8.2133,-8.2129,-8.2125,-8.2258,-8.2266,-8.2274,0,0,0,0,0,0,0,0,0,0,0,0,0,-8.1872,-8.1743,-8.2053,-8.2044,-8.2045,-8.2191,-8.2193,-8.2195,-8.2137,-8.2133,-8.2128,-8.2123,-8.2255,-8.2265,-8.2275,-8.2435,0,0,-8.2305,-8.2309,0,0,0,0,0,0,0,0,-8.1865,-8.1884,-8.2044,-8.2045,-8.2046,-8.2142,-8.2129,-8.2275,-8.2139,-8.2102,-8.2126,-8.2121,-8.2224,-8.2236,-8.2273,-8.2441,-8.2447,-8.2306,-8.2312,-8.2316,-8.2319,0,0,0,0,0,0,0,-8.1855,-8.1878,-8.2108,-8.2046,-8.2048,-8.2031,-8.2046,-8.2157,-8.2189,-8.2105,-8.2101,-8.2119,-8.2224,-8.2263,-8.2275,-8.2449,-8.2306,-8.2314,-8.2321,-8.2324,-8.2756,-8.2761,0,0,0,0,0,0,-8.1846,-8.187,-8.2103,-8.2112,-8.1942,-8.2041,-8.2057,-8.2116,-8.2188,-8.2194,-8.2123,-8.2115,-8.2249,-8.2264,-8.228,-8.2473,-8.2316,-8.2325,-8.2331,-8.2751,-8.2757,-8.2763,0,0,0,0,0,0,-8.184,-8.1868,-8.2098,-8.199,-8.2018,-8.2052,-8.2118,-8.2121,-8.2161,-8.2201,-8.2206,-8.2158,-8.2245,-8.2266,-8.2397,-8.2476,-8.233,-8.2339,-8.2744,-8.2753,-8.276,-8.286,0,0,0,0,0,0,-8.1831,-8.1866,-8.1928,-8.1992,-8.2024,-8.2215,-8.2123,-8.2127,-8.2179,-8.2171,-8.2235,-8.2241,-8.2243,-8.2383,-8.2407,-8.2488,-8.2347,-8.2737,-8.2748,-8.2758,-8.2849,-8.287,-8.2888,0,0,0,0,0,-8.182,-8.1949,-8.1932,-8.196,-8.2104,-8.222,-8.2238,-8.224,-8.2186,-8.2248,-8.2274,-8.2239,-8.2464,-8.2397,-8.2424,-8.2508,-8.2732,-8.2745,-8.2757,-8.2841,-8.2866,-8.2888,0,0,0,0,0,0,-8.189,-8.1957,-8.1939,-8.2093,-8.2152,-8.221,-8.2289,-8.2267,-8.234,-8.2329,-8.2326,-8.2341,-8.2477,-8.2506,-8.243,-8.2667,-8.2589,-8.2608,-8.2644,-8.2668,-8.2687,-8.2677,-8.2355,0,0,0,0,0,-8.1925,-8.2016,-8.2068,-8.2199,-8.223,-8.2255,-8.2305,-8.2302,-8.2361,-8.2385,-8.2421,-8.2478,-8.2561,-8.2616,-8.2695,-8.2853,-8.2866,-8.2925,-8.2944,-8.296,-8.2975,-8.3061,-8.3088,-8.2804,-8.2804,-8.2804,0,0,-8.1995,-8.2043,-8.21,-8.2215,-8.226,-8.2352,-8.2276,-8.2376,-8.2445,-8.2399,-8.2527,-8.2555,-8.2619,-8.2765,-8.283,-8.2792,-8.3057,-8.2975,-8.2988,-8.2995,-8.3077,-8.3103,-8.3127,-8.2812,-8.2811,-8.2809,0,0,-8.2171,-8.2216,-8.2331,-8.2379,-8.2449,-8.2465,-8.2492,-8.2555,-8.2573,-8.2701,-8.267,-8.275,-8.2894,-8.2941,-8.2983,-8.3179,-8.315,-8.3205,-8.3305,-8.3389,-8.3412,-8.3431,-8.3501,-8.3526,-8.322,-8.3221,-8.3221,0,-8.2248,-8.2389,-8.2392,-8.2497,-8.2548,-8.2514,-8.263,-8.2675,-8.2766,-8.2802,-8.2758,-8.294,-8.298,-8.3137,-8.3185,-8.322,-8.3251,-8.3197,-8.3409,-8.3428,-8.3447,-8.3513,-8.354,-8.3227,-8.3226,-8.3226,-8.3225,0,-8.2481,-8.258,-8.2663,-8.2756,-8.2817,-8.2926,-8.2944,-8.3004,-8.2996,-8.3016,-8.3147,-8.3195,-8.3284,-8.332,-8.3312,-8.3476,-8.3451,-8.3408,-8.333,-8.348,-8.3543,-8.3568,-8.3236,-8.3234,-8.3232,-8.323,0,0,-8.2704,-8.2799,-8.283,-8.2872,-8.2948,-8.3023,-8.313,-8.322,-8.3272,-8.3336,-8.3426,-8.355,-8.3512,-8.356,-8.3557,-8.3631,-8.3783,-8.3579,-8.358,-8.3615,-8.3967,-8.3998,-8.4027,-8.3764,-8.3769,-8.3773,-8.3961,0,-8.2886,-8.3078,-8.3084,-8.3258,-8.3348,-8.3319,-8.3412,-8.3468,-8.349,-8.3568,-8.3591,-8.3679,-8.3622,-8.3652,-8.3723,-8.3749,-8.3853,-8.3736,-8.3846,-8.3849,-8.3831,-8.406,-8.4093,-8.4269,-8.3986,-8.399,-8.3993,0,-8.3123,-8.3199,-8.3383,-8.3448,-8.3486,-8.357,-8.3653,-8.3729,-8.3791,-8.3802,-8.3858,-8.3844,-8.3952,-8.3871,-8.4019,-8.394,-8.3985,-8.4004,-8.4011,-8.4021,-8.393,-8.4076,-8.4325,-8.4351,-8.4031,-8.4028,-8.4025,0,-8.3267,-8.3415,-8.3545,-8.3582,-8.366,-8.372,-8.3755,-8.3813,-8.3867,-8.3938,-8.3973,-8.4056,-8.4101,-8.4164,-8.4172,-8.4113,-8.4322,-8.4241,-8.4332,-8.4332,-8.4377,-8.4374,-8.4636,-8.4407,-8.4406,-8.4406,-8.4405,0,-8.3469,-8.3583,-8.3611,-8.3691,-8.3817,-8.3823,-8.3947,-8.3977,-8.4029,-8.4112,-8.409,-8.4169,-8.4175,-8.4256,-8.4262,-8.4384,-8.4404,-8.4415,-8.4415,-8.4417,-8.4416,-8.4446,-8.4434,-8.4413,-8.4411,-8.441,-8.4409,0,-8.3652,-8.3675,-8.3815,-8.3879,-8.3897,-8.3988,-8.4041,-8.4117,-8.4137,-8.4243,-8.4268,-8.4299,-8.4393,-8.4408,-8.4516,-8.4521,-8.4667,-8.4655,-8.4647,-8.4645,-8.4736,-8.4727,-8.5027,-8.5066,-8.4811,-8.4813,-8.4815,0,-8.3779,-8.3867,-8.3941,-8.3997,-8.4036,-8.4126,-8.4182,-8.4191,-8.4249,-8.4328,-8.4394,-8.4486,-8.4559,-8.471,-8.4741,-8.4824,-8.4813,-8.4913,-8.4825,-8.4825,-8.4815,-8.4809,-8.4818,-8.4929,-8.4932,-8.4934,-8.4936,0,-8.4003,-8.4011,-8.4093,-8.4181,-8.425,-8.4318,-8.4382,-8.4429,-8.4446,-8.4512,-8.461,-8.4667,-8.478,-8.4871,-8.4954,-8.4987,-8.4965,-8.4963,-8.4989,-8.4991,-8.4983,-8.4989,-8.4693,-8.4956,-8.4954,-8.4953,-8.4951,-8.4951,-8.4162,-8.4239,-8.4304,-8.4397,-8.4447,-8.4509,-8.4584,-8.4615,-8.4697,-8.4791,-8.479,-8.4897,-8.4957,-8.5066,-8.5106,-8.5187,-8.5155,-8.5192,-8.5201,-8.521,-8.5219,-8.4971,-8.5202,-8.5202,-8.5201,-8.5201,-8.52,0,-8.4384,-8.4426,-8.4512,-8.4605,-8.4678,-8.4653,-8.4724,-8.4786,-8.4881,-8.494,-8.5014,-8.5126,-8.5215,-8.5253,-8.534,-8.5398,-8.539,-8.5421,-8.5416,-8.5424,-8.5243,-8.5212,-8.5426,-8.5426,-8.5426,-8.5426,-8.5426,-8.5426,-8.4509,-8.4638,-8.4654,-8.4807,-8.4847,-8.4953,-8.4996,-8.5052,-8.51,-8.5227,-8.5301,-8.5327,-8.5378,-8.5469,-8.5548,-8.5557,-8.559,-8.5626,-8.563,-8.546,-8.5437,-8.5415,-8.5386,-8.5633,-8.5633,-8.5804,-8.5806,-8.5807]}]]